Content
SEND FEEDBACK

Daily
Averages
Monthly
Summary
United States of America

STATEN ISLAND, NEW YORK


Home > North America > United States > New York
Elevation: 46 meters     Latitude: 40 35N     Longitude: 074 09W

WEATHER
 
SELECT A DAY
Number of Records: 189,619;   Date Range: 1/1/95 - 7/27/14
 
SHARE

PRINT THIS DATA

[ ← Previous Day ]
WEATHER ALMANAC - 8 JULY, 2013
[ Next Day → ]
[ °F ]   °C
We're sorry. There is no daily almanac available for Staten Island, New York on 8 July, 2013.
WEATHER BY HOUR - 8 JULY, 2013
[ °F ]   °C
Local TimeTemperatureDewpointHumidityBarometerVisibilityWind DirectionWind SpeedGust SpeedPrecipitationEventsConditions
1:51 AM24.4 °C19.4 °C74 %1015.9 hPa16.1 kmWSW (240°)18.5 km/hMostly Cloudy
2:51 AM23.9 °C18.9 °C73 %1015.6 hPa16.1 kmWSW (240°)18.5 km/hMostly Cloudy
3:51 AM23.3 °C19.4 °C79 %1015.6 hPa16.1 kmWest (260°)18.5 km/hMostly Cloudy
4:51 AM22.8 °C19.4 °C81 %1015.9 hPa16.1 kmWSW (250°)16.7 km/hMostly Cloudy
5:51 AM22.8 °C19.4 °C81 %1016.3 hPa16.1 kmWSW (240°)13 km/hMostly Cloudy
6:51 AM22.8 °C19.4 °C81 %1016.9 hPa16.1 kmWSW (240°)11.1 km/hMostly Cloudy
7:51 AM24.4 °C20 °C76 %1017.3 hPa16.1 kmWSW (240°)14.8 km/hMostly Cloudy
8:51 AM26.7 °C20 °C67 %1017.3 hPa16.1 kmWest (280°)14.8 km/hMostly Cloudy
9:51 AM27.8 °C20.6 °C65 %1016.9 hPa16.1 kmWSW (240°)14.8 km/hMostly Cloudy
10:51 AM29.4 °C19.4 °C55 %1016.9 hPa16.1 kmVariable7.4 km/hMostly Cloudy
11:51 AM30.6 °C19.4 °C51 %1016.9 hPa16.1 kmWSW (240°)11.1 km/hMostly Cloudy
12:51 PM31.1 °C19.4 °C49 %1016.6 hPa16.1 kmWest (270°)16.7 km/hMostly Cloudy
1:51 PM31.7 °C18.9 °C46 %1016.3 hPa16.1 kmWNW (290°)18.5 km/h27.8 km/hMostly Cloudy
2:51 PM32.8 °C18.9 °C44 %1015.6 hPa16.1 kmWest (280°)18.5 km/h38.9 km/hScattered Clouds
3:51 PM32.8 °C18.3 °C42 %1015.6 hPa16.1 kmWSW (250°)22.2 km/h33.3 km/hScattered Clouds
4:51 PM31.7 °C18.3 °C45 %1015.2 hPa16.1 kmWSW (240°)20.4 km/hMostly Cloudy
5:51 PM31.1 °C18.3 °C46 %1014.6 hPa16.1 kmWSW (250°)16.7 km/hMostly Cloudy
6:51 PM30.6 °C18.9 °C49 %1014.9 hPa16.1 kmWSW (240°)22.2 km/hMostly Cloudy
7:51 PM30 °C18.3 °C49 %1015.6 hPa16.1 kmWSW (240°)20.4 km/h37 km/hMostly Cloudy
8:45 PM28 °C19 °C58 %16.1 kmWSW (240°)20.4 km/hScattered Clouds
8:51 PM28.3 °C19.4 °C58 %1016.3 hPa16.1 kmWSW (240°)20.4 km/hScattered Clouds
9:51 PM27.2 °C17.2 °C54 %1017.3 hPa16.1 kmSW (230°)18.5 km/hMostly Cloudy
10:51 PM26.1 °C17.8 °C60 %1017.3 hPa16.1 kmSW (220°)14.8 km/hMostly Cloudy
11:51 PM25.6 °C18.3 °C64 %1017.3 hPa16.1 kmSW (230°)16.7 km/hScattered Clouds
Hourly data recorded from KEWR, located 0 kilometers away from Staten Island, New York







STORIES FROM OUR PARTNERS